Time,TemperatureF,DewpointF,PressureIn,WindDirection,WindDirectionDegrees,WindSpeedMPH,WindSpeedGustMPH,Humidity,HourlyPrecipIn,Conditions,Clouds,dailyrainin,SoftwareType,DateUTC
2013-02-19 00:08:00,49.5,32.2,29.97,NNW,339,3.0,7.6,51,0.00,,,-99.99,FreeWX-Wi 1.01,2013-02-19 08:08:00,
2013-02-19 00:18:00,49.6,33.6,29.97,NNW,337,2.0,7.6,54,0.00,,,-99.99,FreeWX-Wi 1.01,2013-02-19 08:18:00,
2013-02-19 00:28:00,49.6,34.5,29.97,NNW,337,2.0,6.3,56,0.00,,,-99.99,FreeWX-Wi 1.01,2013-02-19 08:28:00,
2013-02-19 00:38:00,49.3,33.8,29.97,NNW,336,2.0,8.1,55,0.00,,,-99.99,FreeWX-Wi 1.01,2013-02-19 08:38:00,
2013-02-19 00:48:00,49.5,34.0,29.97,NNW,337,3.0,6.3,55,0.00,,,-99.99,FreeWX-Wi 1.01,2013-02-19 08:48:00,
2013-02-19 00:58:00,49.5,34.9,29.97,NNW,341,2.0,5.8,57,0.00,,,-99.99,FreeWX-Wi 1.01,2013-02-19 08:58:00,
2013-02-19 01:08:00,49.5,36.5,29.97,North,354,2.0,7.2,61,0.00,,,-99.99,FreeWX-Wi 1.01,2013-02-19 09:08:00,
2013-02-19 01:18:00,49.3,36.9,29.97,NNE,19,2.0,10.5,62,0.00,,,-99.99,FreeWX-Wi 1.01,2013-02-19 09:18:00,
2013-02-19 01:28:00,48.9,37.8,29.97,NNE,28,2.0,5.8,65,0.00,,,-99.99,FreeWX-Wi 1.01,2013-02-19 09:28:00,
2013-02-19 01:38:00,48.7,37.9,29.97,NE,43,2.0,4.9,66,0.00,,,-99.99,FreeWX-Wi 1.01,2013-02-19 09:38:00,
2013-02-19 01:48:00,48.7,37.9,29.97,NNE,31,1.0,5.4,66,0.00,,,-99.99,FreeWX-Wi 1.01,2013-02-19 09:48:00,
2013-02-19 01:58:00,48.6,37.4,29.97,North,9,1.0,5.8,65,0.00,,,-99.99,FreeWX-Wi 1.01,2013-02-19 09:58:00,
2013-02-19 02:08:00,48.7,37.6,29.97,NNW,339,1.0,6.7,65,0.00,,,-99.99,FreeWX-Wi 1.01,2013-02-19 10:08:00,
2013-02-19 02:18:00,48.7,37.9,29.97,NNW,335,2.0,8.3,66,0.00,,,-99.99,FreeWX-Wi 1.01,2013-02-19 10:18:00,
2013-02-19 02:28:00,48.6,38.5,29.97,NNW,343,2.0,5.8,68,0.00,,,-99.99,FreeWX-Wi 1.01,2013-02-19 10:28:00,
2013-02-19 02:38:00,48.6,38.8,29.94,NNW,342,1.0,4.0,69,0.00,,,-99.99,FreeWX-Wi 1.01,2013-02-19 10:38:00,
2013-02-19 02:48:00,48.4,39.0,29.94,North,-999,0.0,4.0,70,0.00,,,-99.99,FreeWX-Wi 1.01,2013-02-19 10:48:00,
2013-02-19 02:58:00,48.4,39.4,29.94,North,-999,0.0,3.6,71,0.00,,,-99.99,FreeWX-Wi 1.01,2013-02-19 10:58:00,
2013-02-19 03:08:00,48.4,39.4,29.94,NNW,336,1.0,5.8,71,0.00,,,-99.99,FreeWX-Wi 1.01,2013-02-19 11:08:00,
2013-02-19 03:18:00,48.4,39.4,29.94,North,-999,0.0,3.6,71,0.00,,,-99.99,FreeWX-Wi 1.01,2013-02-19 11:18:00,
2013-02-19 03:28:00,48.4,39.4,29.94,North,-999,0.0,0.0,71,0.00,,,-99.99,FreeWX-Wi 1.01,2013-02-19 11:28:00,
2013-02-19 03:38:00,48.2,39.2,29.94,North,-999,0.0,0.0,71,0.00,,,-99.99,FreeWX-Wi 1.01,2013-02-19 11:38:00,
2013-02-19 03:48:00,48.0,39.0,29.94,North,-999,0.0,0.0,71,0.00,,,-99.99,FreeWX-Wi 1.01,2013-02-19 11:48:00,
2013-02-19 03:58:00,48.0,39.4,29.94,North,-999,0.0,0.0,72,0.00,,,-99.99,FreeWX-Wi 1.01,2013-02-19 11:58:00,
2013-02-19 04:08:00,48.0,39.7,29.94,North,-999,0.0,0.0,73,0.00,,,-99.99,FreeWX-Wi 1.01,2013-02-19 12:08:00,
2013-02-19 04:18:00,48.0,39.7,29.94,North,-999,0.0,0.0,73,0.00,,,-99.99,FreeWX-Wi 1.01,2013-02-19 12:18:00,
2013-02-19 04:28:00,48.0,40.1,29.91,North,-999,0.0,4.9,74,0.00,,,-99.99,FreeWX-Wi 1.01,2013-02-19 12:28:00,
2013-02-19 04:38:00,48.2,40.3,29.91,North,-999,0.0,2.2,74,0.00,,,-99.99,FreeWX-Wi 1.01,2013-02-19 12:38:00,
2013-02-19 04:48:00,48.2,40.3,29.91,North,-999,0.0,4.9,74,0.00,,,-99.99,FreeWX-Wi 1.01,2013-02-19 12:48:00,
2013-02-19 04:58:00,48.2,39.9,29.91,North,-999,0.0,5.8,73,0.00,,,-99.99,FreeWX-Wi 1.01,2013-02-19 12:58:00,
2013-02-19 05:08:00,48.6,40.3,29.91,North,-999,0.0,4.0,73,0.00,,,-99.99,FreeWX-Wi 1.01,2013-02-19 13:08:00,
2013-02-19 05:18:00,48.7,40.5,29.91,North,-999,0.0,3.1,73,0.00,,,-99.99,FreeWX-Wi 1.01,2013-02-19 13:18:00,
2013-02-19 05:28:00,49.1,41.2,29.91,North,-999,0.0,4.0,74,0.00,,,-99.99,FreeWX-Wi 1.01,2013-02-19 13:28:00,
2013-02-19 05:38:00,48.7,43.2,29.91,West,280,1.0,6.3,81,0.00,,,-99.99,FreeWX-Wi 1.01,2013-02-19 13:38:00,
2013-02-19 05:48:00,48.6,44.2,29.91,NW,317,2.0,6.3,85,0.00,,,-99.99,FreeWX-Wi 1.01,2013-02-19 13:48:00,
2013-02-19 05:58:00,48.4,44.4,29.91,NW,309,3.0,6.3,86,0.00,,,-99.99,FreeWX-Wi 1.01,2013-02-19 13:58:00,
2013-02-19 06:08:00,48.2,44.2,29.91,WNW,289,2.0,4.5,86,0.00,,,-99.99,FreeWX-Wi 1.01,2013-02-19 14:08:00,
2013-02-19 06:18:00,48.2,44.2,29.91,West,277,2.0,5.8,86,0.00,,,-99.99,FreeWX-Wi 1.01,2013-02-19 14:18:00,
2013-02-19 06:28:00,48.0,44.1,29.88,West,266,2.0,7.6,86,0.00,,,-99.99,FreeWX-Wi 1.01,2013-02-19 14:28:00,
2013-02-19 06:38:00,48.2,43.9,29.88,West,268,2.0,5.8,85,0.00,,,-99.99,FreeWX-Wi 1.01,2013-02-19 14:38:00,
2013-02-19 06:48:00,48.2,44.2,29.88,West,272,2.0,7.6,86,0.00,,,-99.99,FreeWX-Wi 1.01,2013-02-19 14:48:00,
2013-02-19 06:58:00,48.4,44.4,29.88,WNW,286,2.0,6.7,86,0.00,,,-99.99,FreeWX-Wi 1.01,2013-02-19 14:58:00,
2013-02-19 07:08:00,48.4,44.1,29.88,West,276,3.0,8.1,85,0.00,,,-99.99,FreeWX-Wi 1.01,2013-02-19 15:08:00,
2013-02-19 07:18:00,48.6,44.2,29.88,West,268,3.0,8.1,85,0.00,,,-99.99,FreeWX-Wi 1.01,2013-02-19 15:18:00,
2013-02-19 07:28:00,48.7,44.4,29.88,West,261,4.0,9.6,85,0.00,,,-99.99,FreeWX-Wi 1.01,2013-02-19 15:28:00,
2013-02-19 07:38:00,48.7,44.1,29.85,West,270,4.0,9.6,84,0.00,,,-99.99,FreeWX-Wi 1.01,2013-02-19 15:38:00,
2013-02-19 07:48:00,48.6,43.0,29.85,West,262,4.0,7.6,81,0.00,,,-99.99,FreeWX-Wi 1.01,2013-02-19 15:48:00,
2013-02-19 07:58:00,48.7,42.3,29.85,West,263,3.0,10.1,78,0.00,,,-99.99,FreeWX-Wi 1.01,2013-02-19 15:58:00,
2013-02-19 08:08:00,48.9,42.1,29.85,West,263,3.0,5.8,77,0.00,,,-99.99,FreeWX-Wi 1.01,2013-02-19 16:08:00,
2013-02-19 08:18:00,49.3,42.8,29.85,West,265,3.0,8.1,78,0.00,,,-99.99,FreeWX-Wi 1.01,2013-02-19 16:18:00,
2013-02-19 08:28:00,49.6,43.3,29.85,WSW,255,3.0,7.2,79,0.00,,,-99.99,FreeWX-Wi 1.01,2013-02-19 16:28:00,
2013-02-19 08:38:00,50.0,44.1,29.85,WSW,245,3.0,5.8,80,0.00,,,-99.99,FreeWX-Wi 1.01,2013-02-19 16:38:00,
2013-02-19 08:48:00,49.6,44.8,29.85,WSW,245,3.0,5.4,83,0.04,,,-99.99,FreeWX-Wi 1.01,2013-02-19 16:48:00,
2013-02-19 08:58:00,49.3,44.6,29.85,West,260,2.0,8.3,84,0.04,,,-99.99,FreeWX-Wi 1.01,2013-02-19 16:58:00,
2013-02-19 09:08:00,48.7,44.8,29.85,West,279,2.0,6.7,86,0.04,,,-99.99,FreeWX-Wi 1.01,2013-02-19 17:08:00,
2013-02-19 09:18:00,48.7,45.7,29.85,WNW,302,3.0,8.7,89,0.08,,,-99.99,FreeWX-Wi 1.01,2013-02-19 17:18:00,
2013-02-19 09:28:00,48.4,45.0,29.85,NW,326,4.0,10.5,88,0.08,,,-99.99,FreeWX-Wi 1.01,2013-02-19 17:28:00,
2013-02-19 09:38:00,47.8,44.8,29.85,NNW,345,4.0,7.2,89,0.12,,,-99.99,FreeWX-Wi 1.01,2013-02-19 17:38:00,
2013-02-19 09:48:00,47.3,44.6,29.85,NNW,348,3.0,9.6,90,0.12,,,-99.99,FreeWX-Wi 1.01,2013-02-19 17:48:00,
2013-02-19 09:58:00,47.1,45.0,29.85,NNW,342,3.0,5.8,92,0.16,,,-99.99,FreeWX-Wi 1.01,2013-02-19 17:58:00,
2013-02-19 10:08:00,47.1,45.5,29.85,NNW,331,3.0,6.3,94,0.16,,,-99.99,FreeWX-Wi 1.01,2013-02-19 18:08:00,
2013-02-19 10:18:00,46.8,45.1,29.85,NNW,337,2.0,5.8,94,0.16,,,-99.99,FreeWX-Wi 1.01,2013-02-19 18:18:00,
2013-02-19 10:28:00,46.2,44.8,29.85,NNW,334,2.0,5.4,95,0.16,,,-99.99,FreeWX-Wi 1.01,2013-02-19 18:28:00,
2013-02-19 10:38:00,46.2,44.8,29.85,NNW,340,2.0,3.6,95,0.16,,,-99.99,FreeWX-Wi 1.01,2013-02-19 18:38:00,
2013-02-19 10:48:00,46.2,44.8,29.85,NNW,344,1.0,4.0,95,0.12,,,-99.99,FreeWX-Wi 1.01,2013-02-19 18:48:00,
2013-02-19 10:58:00,46.4,45.0,29.82,North,-999,0.0,0.0,95,0.08,,,-99.99,FreeWX-Wi 1.01,2013-02-19 18:58:00,
2013-02-19 11:08:00,47.1,45.7,29.82,North,-999,0.0,4.0,95,0.08,,,-99.99,FreeWX-Wi 1.01,2013-02-19 19:08:00,
2013-02-19 11:18:00,47.3,45.9,29.82,NW,315,1.0,7.6,95,0.04,,,-99.99,FreeWX-Wi 1.01,2013-02-19 19:18:00,
2013-02-19 11:28:00,47.3,45.9,29.82,North,349,2.0,6.3,95,0.04,,,-99.99,FreeWX-Wi 1.01,2013-02-19 19:28:00,
2013-02-19 11:38:00,47.5,46.0,29.82,North,11,2.0,4.9,95,0.00,,,-99.99,FreeWX-Wi 1.01,2013-02-19 19:38:00,
2013-02-19 11:48:00,47.7,45.5,29.82,North,357,2.0,5.8,92,0.00,,,-99.99,FreeWX-Wi 1.01,2013-02-19 19:48:00,
2013-02-19 11:58:00,47.1,43.5,29.82,North,350,2.0,11.0,87,0.00,,,-99.99,FreeWX-Wi 1.01,2013-02-19 19:58:00,
2013-02-19 12:08:00,46.6,43.0,29.82,NNW,339,2.0,8.3,87,0.04,,,-99.99,FreeWX-Wi 1.01,2013-02-19 20:08:00,
2013-02-19 12:18:00,46.4,42.8,29.82,North,10,3.0,7.6,87,0.04,,,-99.99,FreeWX-Wi 1.01,2013-02-19 20:18:00,
2013-02-19 12:28:00,46.6,42.6,29.82,NNE,26,3.0,6.3,86,0.04,,,-99.99,FreeWX-Wi 1.01,2013-02-19 20:28:00,
2013-02-19 12:38:00,46.4,42.1,29.82,NNE,29,3.0,8.7,85,0.04,,,-99.99,FreeWX-Wi 1.01,2013-02-19 20:38:00,
2013-02-19 12:48:00,45.7,40.8,29.82,NNE,18,2.0,7.6,83,0.04,,,-99.99,FreeWX-Wi 1.01,2013-02-19 20:48:00,
2013-02-19 12:58:00,44.8,40.3,29.82,NNE,12,3.0,10.1,84,0.04,,,-99.99,FreeWX-Wi 1.01,2013-02-19 20:58:00,
2013-02-19 13:08:00,44.2,40.3,29.82,NNE,16,2.0,6.3,86,0.04,,,-99.99,FreeWX-Wi 1.01,2013-02-19 21:08:00,
2013-02-19 13:18:00,44.8,41.2,29.82,North,4,2.0,6.3,87,0.04,,,-99.99,FreeWX-Wi 1.01,2013-02-19 21:18:00,
2013-02-19 13:28:00,46.2,43.2,29.79,North,3,1.0,4.9,89,0.04,,,-99.99,FreeWX-Wi 1.01,2013-02-19 21:28:00,
2013-02-19 13:38:00,47.3,44.2,29.79,NNE,20,1.0,8.1,89,0.04,,,-99.99,FreeWX-Wi 1.01,2013-02-19 21:38:00,
2013-02-19 13:48:00,47.1,42.3,29.79,NE,34,2.0,10.1,83,0.04,,,-99.99,FreeWX-Wi 1.01,2013-02-19 21:48:00,
2013-02-19 13:58:00,46.9,39.7,29.79,North,8,3.0,8.1,76,0.00,,,-99.99,FreeWX-Wi 1.01,2013-02-19 21:58:00,
2013-02-19 14:08:00,46.9,39.4,29.79,NNW,347,3.0,5.4,75,0.00,,,-99.99,FreeWX-Wi 1.01,2013-02-19 22:08:00,
2013-02-19 14:18:00,47.3,40.1,29.79,NNW,347,2.0,8.1,76,0.00,,,-99.99,FreeWX-Wi 1.01,2013-02-19 22:18:00,
2013-02-19 14:28:00,47.1,38.1,29.79,North,5,3.0,8.7,71,0.00,,,-99.99,FreeWX-Wi 1.01,2013-02-19 22:28:00,
2013-02-19 14:38:00,47.7,36.9,29.79,NNE,19,4.0,10.1,66,0.00,,,-99.99,FreeWX-Wi 1.01,2013-02-19 22:38:00,
2013-02-19 14:48:00,47.8,34.7,29.79,NNE,15,4.0,8.7,60,0.00,,,-99.99,FreeWX-Wi 1.01,2013-02-19 22:48:00,
2013-02-19 14:58:00,47.5,33.4,29.79,NNE,19,4.0,10.5,58,0.00,,,-99.99,FreeWX-Wi 1.01,2013-02-19 22:58:00,
2013-02-19 15:08:00,47.1,31.8,29.79,NNE,22,4.0,11.0,55,0.00,,,-99.99,FreeWX-Wi 1.01,2013-02-19 23:08:00,
2013-02-19 15:18:00,47.3,32.4,29.79,NNE,21,4.0,8.3,56,0.00,,,-99.99,FreeWX-Wi 1.01,2013-02-19 23:18:00,
2013-02-19 15:28:00,47.3,32.0,29.79,North,8,4.0,8.7,55,0.00,,,-99.99,FreeWX-Wi 1.01,2013-02-19 23:28:00,
2013-02-19 15:38:00,47.3,32.4,29.79,North,2,5.0,12.3,56,0.00,,,-99.99,FreeWX-Wi 1.01,2013-02-19 23:38:00,
2013-02-19 15:48:00,47.1,31.3,29.79,North,353,5.0,11.0,54,0.00,,,-99.99,FreeWX-Wi 1.01,2013-02-19 23:48:00,
2013-02-19 15:58:00,47.5,34.7,29.79,North,353,4.0,14.5,61,0.00,,,-99.99,FreeWX-Wi 1.01,2013-02-19 23:58:00,
2013-02-19 16:08:00,46.9,34.2,29.79,North,2,4.0,8.7,61,0.00,,,-99.99,FreeWX-Wi 1.01,2013-02-20 00:08:00,
2013-02-19 16:18:00,46.4,32.4,29.79,NNE,18,4.0,8.1,58,0.00,,,-99.99,FreeWX-Wi 1.01,2013-02-20 00:18:00,
2013-02-19 16:28:00,46.4,33.3,29.76,NNE,28,4.0,6.3,60,0.00,,,-99.99,FreeWX-Wi 1.01,2013-02-20 00:28:00,
2013-02-19 16:38:00,46.6,32.2,29.76,NNE,24,4.0,8.7,57,0.00,,,-99.99,FreeWX-Wi 1.01,2013-02-20 00:38:00,
2013-02-19 16:48:00,46.6,33.8,29.76,NNE,16,4.0,10.1,61,0.00,,,-99.99,FreeWX-Wi 1.01,2013-02-20 00:48:00,
2013-02-19 16:58:00,46.4,33.6,29.76,North,8,4.0,6.7,61,0.00,,,-99.99,FreeWX-Wi 1.01,2013-02-20 00:58:00,
2013-02-19 17:08:00,46.4,34.2,29.76,North,1,3.0,6.3,62,0.00,,,-99.99,FreeWX-Wi 1.01,2013-02-20 01:08:00,
2013-02-19 17:18:00,46.2,33.4,29.76,NNW,347,3.0,8.3,61,0.00,,,-99.99,FreeWX-Wi 1.01,2013-02-20 01:18:00,
2013-02-19 17:28:00,46.2,33.1,29.76,NNW,341,3.0,7.6,60,0.00,,,-99.99,FreeWX-Wi 1.01,2013-02-20 01:28:00,
2013-02-19 17:38:00,45.9,32.0,29.76,North,357,3.0,8.1,58,0.00,,,-99.99,FreeWX-Wi 1.01,2013-02-20 01:38:00,
2013-02-19 17:48:00,45.5,31.6,29.76,NNE,18,2.0,5.4,58,0.00,,,-99.99,FreeWX-Wi 1.01,2013-02-20 01:48:00,
2013-02-19 17:58:00,45.3,31.5,29.76,NNE,25,3.0,8.3,58,0.00,,,-99.99,FreeWX-Wi 1.01,2013-02-20 01:58:00,
2013-02-19 18:08:00,45.3,30.6,29.76,NNE,22,3.0,10.1,56,0.00,,,-99.99,FreeWX-Wi 1.01,2013-02-20 02:08:00,
2013-02-19 18:18:00,45.1,30.7,29.76,NNE,14,3.0,7.2,57,0.00,,,-99.99,FreeWX-Wi 1.01,2013-02-20 02:18:00,
2013-02-19 18:28:00,45.0,31.1,29.76,NNE,28,3.0,10.1,58,0.00,,,-99.99,FreeWX-Wi 1.01,2013-02-20 02:28:00,
2013-02-19 18:38:00,44.8,31.3,29.76,NNE,29,3.0,5.8,59,0.00,,,-99.99,FreeWX-Wi 1.01,2013-02-20 02:38:00,
2013-02-19 18:48:00,44.6,31.1,29.76,NE,37,3.0,9.6,59,0.00,,,-99.99,FreeWX-Wi 1.01,2013-02-20 02:48:00,
2013-02-19 18:58:00,44.6,32.0,29.79,NE,39,3.0,7.6,61,0.00,,,-99.99,FreeWX-Wi 1.01,2013-02-20 02:58:00,
2013-02-19 19:08:00,44.4,32.2,29.79,NE,48,3.0,6.3,62,0.00,,,-99.99,FreeWX-Wi 1.01,2013-02-20 03:08:00,
2013-02-19 19:18:00,44.4,32.5,29.79,NE,45,2.0,5.8,63,0.00,,,-99.99,FreeWX-Wi 1.01,2013-02-20 03:18:00,
2013-02-19 19:28:00,44.2,32.5,29.79,ENE,57,2.0,7.6,63,0.00,,,-99.99,FreeWX-Wi 1.01,2013-02-20 03:28:00,
2013-02-19 19:38:00,44.2,32.9,29.79,NE,50,2.0,5.8,64,0.00,,,-99.99,FreeWX-Wi 1.01,2013-02-20 03:38:00,
2013-02-19 19:48:00,44.1,32.7,29.79,NE,48,2.0,6.3,64,0.00,,,-99.99,FreeWX-Wi 1.01,2013-02-20 03:48:00,
2013-02-19 19:58:00,44.1,32.4,29.79,NE,40,2.0,6.7,63,0.00,,,-99.99,FreeWX-Wi 1.01,2013-02-20 03:58:00,
2013-02-19 20:08:00,44.1,32.4,29.79,NE,46,2.0,5.8,63,0.00,,,-99.99,FreeWX-Wi 1.01,2013-02-20 04:08:00,
2013-02-19 20:18:00,44.1,32.4,29.79,NE,47,2.0,8.1,63,0.00,,,-99.99,FreeWX-Wi 1.01,2013-02-20 04:18:00,
2013-02-19 20:28:00,44.1,32.4,29.79,NNE,31,2.0,6.3,63,0.00,,,-99.99,FreeWX-Wi 1.01,2013-02-20 04:28:00,
2013-02-19 20:38:00,44.1,31.5,29.79,NNE,21,2.0,4.0,61,0.00,,,-99.99,FreeWX-Wi 1.01,2013-02-20 04:38:00,
2013-02-19 20:48:00,44.1,31.8,29.79,NNE,33,1.0,3.6,62,0.00,,,-99.99,FreeWX-Wi 1.01,2013-02-20 04:48:00,
2013-02-19 20:58:00,43.7,31.5,29.79,NE,40,1.0,4.0,62,0.00,,,-99.99,FreeWX-Wi 1.01,2013-02-20 04:58:00,
2013-02-19 21:08:00,43.7,31.1,29.79,NE,53,1.0,4.5,61,0.00,,,-99.99,FreeWX-Wi 1.01,2013-02-20 05:08:00,
2013-02-19 21:18:00,43.5,30.9,29.79,NE,49,1.0,4.0,61,0.00,,,-99.99,FreeWX-Wi 1.01,2013-02-20 05:18:00,
2013-02-19 21:28:00,43.5,30.9,29.82,NE,44,1.0,3.6,61,0.00,,,-99.99,FreeWX-Wi 1.01,2013-02-20 05:28:00,
2013-02-19 21:38:00,43.7,30.7,29.82,North,-999,0.0,3.6,60,0.00,,,-99.99,FreeWX-Wi 1.01,2013-02-20 05:38:00,
2013-02-19 21:48:00,43.5,30.2,29.82,North,-999,0.0,3.6,59,0.00,,,-99.99,FreeWX-Wi 1.01,2013-02-20 05:48:00,
2013-02-19 21:58:00,43.5,29.7,29.82,NNE,32,1.0,5.4,58,0.00,,,-99.99,FreeWX-Wi 1.01,2013-02-20 05:58:00,
2013-02-19 22:08:00,43.5,29.7,29.82,NE,41,1.0,5.4,58,0.00,,,-99.99,FreeWX-Wi 1.01,2013-02-20 06:08:00,
2013-02-19 22:18:00,43.3,29.5,29.82,NE,46,2.0,4.9,58,0.00,,,-99.99,FreeWX-Wi 1.01,2013-02-20 06:18:00,
2013-02-19 22:28:00,43.2,29.5,29.82,NE,47,2.0,4.0,58,0.00,,,-99.99,FreeWX-Wi 1.01,2013-02-20 06:28:00,
2013-02-19 22:38:00,43.3,30.0,29.82,NE,52,2.0,5.8,59,0.00,,,-99.99,FreeWX-Wi 1.01,2013-02-20 06:38:00,
2013-02-19 22:48:00,43.5,29.7,29.82,NE,51,2.0,5.8,58,0.00,,,-99.99,FreeWX-Wi 1.01,2013-02-20 06:48:00,
2013-02-19 22:58:00,43.5,29.7,29.85,NE,54,2.0,5.4,58,0.00,,,-99.99,FreeWX-Wi 1.01,2013-02-20 06:58:00,
2013-02-19 23:08:00,43.5,29.7,29.85,NE,54,2.0,5.8,58,0.00,,,-99.99,FreeWX-Wi 1.01,2013-02-20 07:08:00,
2013-02-19 23:18:00,43.5,29.3,29.85,NE,54,2.0,5.8,57,0.00,,,-99.99,FreeWX-Wi 1.01,2013-02-20 07:18:00,
2013-02-19 23:28:00,43.5,28.9,29.85,NE,52,3.0,6.3,56,0.00,,,-99.99,FreeWX-Wi 1.01,2013-02-20 07:28:00,
2013-02-19 23:38:00,43.5,28.9,29.85,NE,52,2.0,5.8,56,0.00,,,-99.99,FreeWX-Wi 1.01,2013-02-20 07:38:00,
2013-02-19 23:48:00,43.5,29.3,29.85,NE,41,2.0,6.3,57,0.00,,,-99.99,FreeWX-Wi 1.01,2013-02-20 07:48:00,
2013-02-19 23:58:00,43.5,29.3,29.85,NNE,32,1.0,5.4,57,0.00,,,-99.99,FreeWX-Wi 1.01,2013-02-20 07:58:00,